• In Latvia
  • List of Countries
  • For 7 days
  • Water Temperature
  • Satellite Maps
  • Weather Map
  • Weather Widgets
  • user-avatar
    Login

    Hourly Weather Akniste

    Today, 20 September, Thursday

    Time Temperature Precipitation Wind Pressure Humidity
    00:00 +15°C° 0 mm 2 mps 753 mmHg 96%
    01:00 +14°C° 0 mm 2 mps 753 mmHg 97%
    02:00 +14°C° 0 mm 2 mps 754 mmHg 97%
    03:00 +13°C° 0 mm 2 mps 754 mmHg 97%
    04:00 +13°C° 0 mm 2 mps 754 mmHg 97%
    05:00 +13°C° 0 mm 2 mps 754 mmHg 97%
    06:00 +14°C° 0 mm 2 mps 754 mmHg 94%
    07:00 +15°C° 0 mm 2 mps 754 mmHg 90%
    08:00 +14°C° 0 mm 3 mps 754 mmHg 86%
    09:00 +17°C° 0 mm 3 mps 754 mmHg 78%
    10:00 +19°C° 0 mm 3 mps 754 mmHg 70%
    11:00 +22°C° 0 mm 3 mps 754 mmHg 63%
    12:00 +24°C° 0 mm 3 mps 754 mmHg 60%
    13:00 +25°C° 0 mm 3 mps 754 mmHg 57%
    14:00 +26°C° 0 mm 4 mps 754 mmHg 55%
    15:00 +25°C° 0 mm 3 mps 754 mmHg 60%
    16:00 +25°C° 0 mm 3 mps 754 mmHg 65%
    17:00 +24°C° 0 mm 2 mps 753 mmHg 70%
    18:00 +23°C° 0 mm 2 mps 753 mmHg 76%
    19:00 +20°C° 0 mm 2 mps 754 mmHg 83%
    20:00 +19°C° 0 mm 2 mps 754 mmHg 90%
    21:00 +18°C° 0 mm 2 mps 754 mmHg 91%
    22:00 +18°C° 0 mm 2 mps 754 mmHg 93%
    23:00 +17°C° 0 mm 2 mps 754 mmHg 94%

    Tomorrow, 21 September, Friday

    Time Temperature Precipitation Wind Pressure Humidity
    00:00 +17°C° 0 mm 2 mps 754 mmHg 94%
    01:00 +17°C° 0 mm 2 mps 754 mmHg 93%
    02:00 +17°C° 0 mm 2 mps 754 mmHg 93%
    03:00 +17°C° 0 mm 2 mps 754 mmHg 93%
    04:00 +17°C° 0 mm 2 mps 754 mmHg 92%
    05:00 +17°C° 0 mm 2 mps 753 mmHg 92%
    06:00 +18°C° 0 mm 2 mps 753 mmHg 89%
    07:00 +18°C° 0 mm 2 mps 753 mmHg 86%
    08:00 +19°C° 0 mm 3 mps 753 mmHg 83%
    09:00 +21°C° 0 mm 3 mps 753 mmHg 76%
    10:00 +23°C° 0 mm 4 mps 753 mmHg 69%
    11:00 +26°C° 0 mm 4 mps 753 mmHg 62%
    12:00 +26°C° 0 mm 5 mps 752 mmHg 59%
    13:00 +27°C° 0 mm 5 mps 752 mmHg 56%
    14:00 +28°C° 0 mm 5 mps 751 mmHg 53%
    15:00 +27°C° 0 mm 5 mps 751 mmHg 56%
    16:00 +26°C° 0 mm 4 mps 750 mmHg 59%
    17:00 +25°C° 0 mm 4 mps 750 mmHg 62%
    18:00 +23°C° 0 mm 4 mps 749 mmHg 64%
    19:00 +22°C° 0 mm 5 mps 749 mmHg 65%
    20:00 +20°C° 0 mm 5 mps 748 mmHg 67%
    21:00 +20°C° 0 mm 5 mps 748 mmHg 67%
    22:00 +20°C° 0 mm 5 mps 747 mmHg 67%
    23:00 +20°C° 0 mm 6 mps 747 mmHg 67%

    Day after tomorrow, 22 September, Saturday

    Time Temperature Precipitation Wind Pressure Humidity
    00:00 +20°C° 0 mm 6 mps 746 mmHg 66%
    01:00 +20°C° 0 mm 6 mps 746 mmHg 65%
    02:00 +20°C° 0 mm 5 mps 746 mmHg 64%
    03:00 +17°C° 0.3 mm 5 mps 746 mmHg 69%
    04:00 +16°C° 0.3 mm 5 mps 746 mmHg 74%
    05:00 +14°C° 0.3 mm 4 mps 747 mmHg 78%
    06:00 +13°C° 0.7 mm 4 mps 747 mmHg 82%
    07:00 +13°C° 0.7 mm 4 mps 748 mmHg 85%
    08:00 +12°C° 0.7 mm 4 mps 748 mmHg 88%
    09:00 +13°C° 0 mm 5 mps 748 mmHg 81%
    10:00 +14°C° 0 mm 5 mps 748 mmHg 74%
    11:00 +15°C° 0 mm 6 mps 749 mmHg 67%
    12:00 +15°C° 0.1 mm 6 mps 749 mmHg 63%
    13:00 +15°C° 0.1 mm 6 mps 749 mmHg 60%
    14:00 +15°C° 0.1 mm 7 mps 749 mmHg 56%
    15:00 +15°C° 0.1 mm 6 mps 749 mmHg 60%
    16:00 +14°C° 0.1 mm 5 mps 748 mmHg 63%
    17:00 +14°C° 0.1 mm 4 mps 748 mmHg 66%
    18:00 +13°C° 0 mm 4 mps 749 mmHg 70%
    19:00 +12°C° 0 mm 3 mps 749 mmHg 73%
    20:00 +10°C° 0 mm 3 mps 749 mmHg 76%
    21:00 +10°C° 0 mm 3 mps 749 mmHg 78%
    22:00 +10°C° 0 mm 3 mps 749 mmHg 80%
    23:00 +9°C° 0 mm 3 mps 749 mmHg 82%

    23 September, Sunday

    Time Temperature Precipitation Wind Pressure Humidity
    00:00 +8°C° 0 mm 4 mps 749 mmHg 82%
    01:00 +8°C° 0 mm 4 mps 748 mmHg 83%
    02:00 +8°C° 0 mm 4 mps 748 mmHg 84%
    03:00 +8°C° 0 mm 4 mps 748 mmHg 85%
    04:00 +8°C° 0 mm 4 mps 748 mmHg 85%
    05:00 +8°C° 0 mm 4 mps 748 mmHg 86%
    06:00 +8°C° 0 mm 5 mps 747 mmHg 83%
    07:00 +9°C° 0 mm 5 mps 747 mmHg 80%
    08:00 +10°C° 0 mm 5 mps 747 mmHg 77%
    09:00 +10°C° 0.2 mm 6 mps 747 mmHg 75%
    10:00 +11°C° 0.2 mm 6 mps 747 mmHg 72%
    11:00 +11°C° 0.2 mm 6 mps 747 mmHg 70%
    12:00 +13°C° 0.4 mm 6 mps 747 mmHg 69%
    13:00 +12°C° 0.4 mm 7 mps 747 mmHg 69%
    14:00 +12°C° 0.4 mm 7 mps 747 mmHg 69%
    15:00 +13°C° 0.3 mm 6 mps 747 mmHg 71%
    16:00 +12°C° 0.3 mm 5 mps 747 mmHg 74%
    17:00 +12°C° 0.3 mm 4 mps 747 mmHg 76%
    18:00 +11°C° 0 mm 4 mps 747 mmHg 80%
    19:00 +10°C° 0 mm 4 mps 747 mmHg 83%
    20:00 +9°C° 0 mm 3 mps 748 mmHg 87%
    21:00 +9°C° 0 mm 3 mps 748 mmHg 88%
    22:00 +8°C° 0 mm 3 mps 747 mmHg 90%
    23:00 +8°C° 0 mm 2 mps 747 mmHg 92%

    24 September, Monday

    Time Temperature Precipitation Wind Pressure Humidity
    00:00 +7°C° 0 mm 2 mps 747 mmHg 93%
    01:00 +7°C° 0 mm 2 mps 747 mmHg 94%
    02:00 +7°C° 0 mm 2 mps 746 mmHg 94%
    03:00 +7°C° 0 mm 2 mps 745 mmHg 93%
    04:00 +7°C° 0 mm 2 mps 745 mmHg 91%
    05:00 +7°C° 0 mm 2 mps 744 mmHg 90%
    06:00 +7°C° 0.1 mm 3 mps 743 mmHg 87%
    07:00 +8°C° 0.1 mm 3 mps 743 mmHg 85%
    08:00 +7°C° 0.1 mm 4 mps 742 mmHg 83%
    09:00 +7°C° 0.7 mm 4 mps 741 mmHg 85%
    10:00 +7°C° 0.7 mm 5 mps 739 mmHg 86%
    11:00 +8°C° 0.7 mm 6 mps 738 mmHg 87%
    12:00 +7°C° 2.1 mm 6 mps 737 mmHg 89%
    13:00 +7°C° 2.1 mm 6 mps 736 mmHg 91%
    14:00 +7°C° 2.1 mm 6 mps 735 mmHg 92%
    15:00 +7°C° 3 mm 6 mps 734 mmHg 93%
    16:00 +7°C° 3 mm 5 mps 734 mmHg 94%
    17:00 +7°C° 3 mm 5 mps 733 mmHg 95%
    18:00 +7°C° 1.8 mm 5 mps 732 mmHg 95%
    19:00 +7°C° 1.8 mm 4 mps 732 mmHg 95%
    20:00 +7°C° 1.8 mm 4 mps 731 mmHg 96%
    21:00 +7°C° 1.7 mm 5 mps 731 mmHg 95%
    22:00 +6°C° 1.7 mm 5 mps 731 mmHg 94%
    23:00 +5°C° 1.7 mm 6 mps 731 mmHg 94%

    25 September, Tuesday

    Time Temperature Precipitation Wind Pressure Humidity
    00:00 +5°C° 1.1 mm 7 mps 732 mmHg 93%
    01:00 +5°C° 1.1 mm 7 mps 733 mmHg 92%
    02:00 +5°C° 1.1 mm 7 mps 733 mmHg 91%
    03:00 +5°C° 1 mm 8 mps 734 mmHg 90%
    04:00 +5°C° 1 mm 8 mps 735 mmHg 90%
    05:00 +5°C° 1 mm 8 mps 736 mmHg 89%
    06:00 +5°C° 0.3 mm 8 mps 737 mmHg 88%
    07:00 +5°C° 0.3 mm 8 mps 738 mmHg 87%
    08:00 +5°C° 0.3 mm 8 mps 739 mmHg 86%
    09:00 +5°C° 0.1 mm 8 mps 740 mmHg 83%
    10:00 +6°C° 0.1 mm 8 mps 741 mmHg 81%
    11:00 +6°C° 0.1 mm 8 mps 742 mmHg 78%
    12:00 +6°C° 0.1 mm 8 mps 743 mmHg 75%
    13:00 +6°C° 0.1 mm 8 mps 744 mmHg 72%
    14:00 +6°C° 0.1 mm 8 mps 745 mmHg 69%
    15:00 +6°C° 0 mm 7 mps 745 mmHg 66%
    16:00 +6°C° 0 mm 7 mps 746 mmHg 64%
    17:00 +7°C° 0 mm 6 mps 747 mmHg 61%
    18:00 +5°C° 0 mm 6 mps 747 mmHg 63%
    19:00 +5°C° 0 mm 5 mps 748 mmHg 65%
    20:00 +4°C° 0 mm 4 mps 749 mmHg 67%
    21:00 +4°C° 0 mm 4 mps 749 mmHg 67%
    22:00 +3°C° 0 mm 4 mps 750 mmHg 68%
    23:00 +3°C° 0 mm 4 mps 750 mmHg 68%
    Show more